Regional Weather Roundup
Issued by NWS Sterling, VA

Home | Current Version | Previous Version | Graphics & Text | Print | Product List | Glossary On
Versions: 1 2 3 4 5 6 7 8 9 10 11 12 13 14 15 16 17 18 19 20 21 22 23 24 25 26 27 28 29 30 31 32 33 34 35 36 37 38 39 40 41 42 43 44 45 46 47 48 49 50
000
ASUS41 KLWX 222110
RWRLWX

REGIONAL WEATHER ROUNDUP
NATIONAL WEATHER SERVICE BALTIMORE MD/WASHINGTON DC
500 PM EDT FRI AUG 22 2014

Note: "FAIR" indicates few or no clouds below 12,000 feet
with no significant weather and/or obstructions to visibility.
 TC=TEMPERATURE CELSIUS

 * =Non NWS site. Station does not report precipitation (e.g. rain,
    snow, etc.), thunder, or fog.

DCZ001-MDZ009-015-VAZ040>042-051-053>054-222200-
WASHINGTON METRO
  /KDAA//-FT BELVOIR

CITY           SKY/WX    TMP DP  RH WIND       PRES   REMARKS
WASHINGTON NAT LGT RAIN  81  70  69 NE10      29.96S
DULLES         MOSUNNY   79  68  69 CALM      29.96F
ANDREWS AFB    PTSUNNY   78  71  80 NE8       29.96F
QUANTICO       PTSUNNY   80  70  71 VRB3      29.96F
COLLEGE PARK*  CLOUDY    77  73  88 CALM      29.96S
LEESBURG*      MOSUNNY   82  72  69 CALM      29.97F
GAITHERSBURG*  CLOUDY    73  70  88 CALM      30.01F

$$

MDZ006>007-011-014-222200-
BALTIMORE METRO

CITY           SKY/WX    TMP DP  RH WIND       PRES   REMARKS
BWI AIRPORT    CLOUDY    78  69  73 E5        29.96S
MD SCIENCE CTR   N/A     78  66  66 MISG      29.97S
MARTIN STATE   PTSUNNY   79  72  78 CALM      29.98F
ANNAPOLIS        N/A     78  69  73 NE7       29.95F
FORT MEADE*    PTSUNNY   77  68  73 E5        29.98F

$$

MDZ012-015-019>023-222200-
MARYLAND EASTERN SHORE

CITY           SKY/WX    TMP DP  RH WIND       PRES   REMARKS
OCEAN CITY     CLOUDY    76  70  82 E8        29.96R
SALISBURY      LGT RAIN  76  70  82 E7        29.96S
BAY BRIDGE AP*   N/A     77  70  78 N3        29.96S
CAMBRIDGE*     CLOUDY    72  70  94 W3        29.96R VSB 1/2
EASTON*        PTSUNNY   77  75  94 CALM      29.99S

$$

MDZ017>025-222200-
SOUTHERN MARYLAND

CITY           SKY/WX    TMP DP  RH WIND       PRES   REMARKS
PATUXENT RIVER PTSUNNY   79  71  76 N9        29.95S
ST INIGOES     PTSUNNY   77  71  82 NW3       29.95R
LEONARDTOWN*   CLOUDY    77  70  78 CALM      29.97S

$$

MDZ003>005-222200-
NORTH CENTRAL MARYLAND

CITY           SKY/WX    TMP DP  RH WIND       PRES   REMARKS
FREDERICK*     PTSUNNY   81  73  78 E3        29.99F
HAGERSTOWN APT CLOUDY    78  68  71 VRB3      29.97F
WESTMINSTER*   PTSUNNY   77  72  83 E6        29.98F

$$

MDZ501>502-222200-
WESTERN MARYLAND

CITY           SKY/WX    TMP DP  RH WIND       PRES   REMARKS
OAKLAND*       CLOUDY    70  70 100 CALM      30.07S
CUMBERLAND*    MOSUNNY   82  70  65 W8        30.01R

$$

VAZ025>031-222200-
SHENANDOAH VALLEY

CITY           SKY/WX    TMP DP  RH WIND       PRES   REMARKS
WINCHESTER*    SUNNY     81  68  65 S3        29.98S
STAUNTON*      PTSUNNY   81  68  65 E6        30.01S

$$

WVZ021-048>050-054>055-222200-
EASTERN WEST VIRGINIA PANHANDLE

CITY           SKY/WX    TMP DP  RH WIND       PRES   REMARKS
MARTINSBURG    MOSUNNY   81  67  62 S5        29.97F
PETERSBURG*    NOT AVBL

$$

VAZ036>039-050-222200-
CENTRAL FOOTHILLS

CITY           SKY/WX    TMP DP  RH WIND       PRES   REMARKS
CHARLOTTESVILL PTSUNNY   79  70  74 VRB3      29.98S
ORANGE*        MOSUNNY   79  68  69 NW3       29.99S

$$

VAZ055>057-222200-
NORTH AND CENTRAL PIEDMONT

CITY           SKY/WX    TMP DP  RH WIND       PRES   REMARKS
FREDERICKSBRG* SUNNY     83  71  68 CALM      29.95S
STAFFORD*      MOSUNNY   80  73  77 CALM      30.00S

$$

NCZ024-NYZ072-PAZ021-071-VAZ022-071-222200-
OTHER REGIONAL OBSERVATIONS

CITY           SKY/WX    TMP DP  RH WIND       PRES   REMARKS
NEW YORK CITY  LGT RAIN  71  62  73 VRB5      30.05R
PHILADELPHIA   CLOUDY    77  66  68 E9        29.98F
PITTSBURGH     MOSUNNY   81  69  67 CALM      29.95F
ROANOKE        CLOUDY    80  71  74 E5        30.03S
RICHMOND       PTSUNNY   83  69  62 CALM      29.95F
RALEIGH        PTSUNNY   83  70  64 W10G20    29.98R THUNDER

$$

ANZ530>537-222200-
MARINE OBSERVATIONS

STATION/POSITION TIME  TEMP    WIND        PRES
                       AIR SEA DIR/SP/G
                 (UTC) (F)     (DEG/KT/KT) (MB)
THOMAS PT LIGHT  2100   76 78   40/ 10/ 10 1014.6F
BALT KEY BRIDGE  2100   77      60/  3/  4 1014.5R
COVE POINT       2100   77      10/ 10/ 13 1014.2R
LEWISETTA        2100   76 80  340/  6/  8 1013.7F
SOLOMONS ISLAND  2100      80                N/A
PINEY POINT      2100          350/  6/  6   N/A

$$



USA.gov is the U.S. government's official web portal to all federal, state and local government web resources and services.